NSS-9

Last updated on Thu Oct 30 2025 00:02:48 GMT+0000 (Coordinated Universal Time)

1 33749U 09008A 25302.54211330 .00000083 00000+0 00000+0 0 9993 2 33749 0.6600 84.5010 0002023 118.8369 213.0490 1.00273122 61207
UTC large
Height (km)
Speed (km/s)
/
Latitude / Longitude
Inclination (degrees)
Orbital Period (minutes)
Azimuth
Elevation
Range (km)
Doppler Factor

Next 0 passes for location: London (51.5072 / 0.1276)

Sorry there are no passes over London.